Flag for Kazakhstan Weather past 2 weeks in Astana, Kazakhstan

Now
77 °F

Sunny.


Feels Like: 77 °F
Forecast: 56 / 76 °F
Wind: 15 mph from West

Location: Astana

Current Time: Aug 29, 2015 at 7:04:24 PM

Latest Report: Aug 29, 2015 at 6:30 PM


Visibility: 10 mi

Pressure: 29.92 "Hg

Humidity: 24%

Dew point: 37 °F

Location of AstanaLocation

Historic Weather in Astana — Graph

°F

Astana temperature yesterday

Maximum temperature yesterday: 72 °F (at 2:00 PM)
Minimum temperature yesterday: 39 °F (at 1:30 AM)
Average temperature yesterday: 56 °F

Past Weeks' High & Low Weather Summary

 TemperatureHumidityPressure
High93 °F (Aug 18, 3:00 PM)94% (Aug 25, 11:00 PM)30.21 "Hg (Aug 25, 11:00 PM)
Low39 °F (Aug 28, 1:30 AM)8% (Aug 18, 5:00 PM)29.53 "Hg (Aug 25, 3:30 PM)
Average62 °F50%29.88 "Hg
* Reported Aug 14 5:00 PM — Aug 29 5:30 PM, Astana, Weather by CustomWeather, © 2015

Note: Actual official high and low records may vary slightly from our data, if they occured in-between our weather recording intervals... More about our weather records

Advertising

Astana weather history for previous 24 hours

 ConditionsComfort  
Time TempWeatherWind HumidityBarometerVisibility
5:30 PM
Sat, Aug 29
77 °FSunny.17 mph24%29.95 "Hg10 mi
5:00 PM77 °FSunny.20 mph24%29.95 "Hg10 mi
4:00 PM81 °FSunny.24 mph20%29.92 "Hg10 mi
3:30 PM81 °FSunny.20 mph20%29.95 "Hg10 mi
3:00 PM81 °FSunny.20 mph20%29.95 "Hg10 mi
2:30 PM81 °FSunny.22 mph20%29.95 "Hg10 mi
2:00 PM81 °FSunny.22 mph20%29.98 "Hg10 mi
1:30 PM81 °FPassing clouds.20 mph20%29.98 "HgN/A
1:00 PM79 °FSunny.24 mph20%29.98 "Hg10 mi
12:00 PM77 °FSunny.24 mph21%30.01 "Hg10 mi
11:30 AM75 °FSunny.22 mph22%30.01 "Hg10 mi
11:00 AM73 °FSunny.20 mph22%30.04 "Hg10 mi
10:30 AM70 °FSunny.20 mph23%30.04 "Hg10 mi
10:00 AM70 °FSunny.17 mph23%30.04 "Hg10 mi
9:30 AM66 °FSunny.15 mph26%30.07 "Hg10 mi
9:00 AM61 °FSunny.17 mph31%30.07 "Hg10 mi
8:30 AM59 °FSunny.17 mph34%30.07 "Hg10 mi
8:00 AM52 °FSunny.8 mph47%30.07 "Hg10 mi
7:30 AM50 °FSunny.10 mph50%30.07 "Hg10 mi
7:00 AM48 °FClear.10 mph54%30.07 "Hg10 mi
6:30 AM46 °FClear.13 mph57%30.07 "Hg10 mi
6:00 AM48 °FClear.13 mph58%30.07 "Hg10 mi
5:30 AM46 °FClear.10 mph62%30.07 "Hg10 mi
5:00 AM46 °FClear.8 mph62%30.09 "Hg10 mi
4:30 AM46 °FClear.8 mph62%30.09 "Hg10 mi
4:00 AM46 °FClear.8 mph62%30.09 "Hg10 mi
3:30 AM48 °FClear.10 mph58%30.09 "Hg10 mi
3:00 AM50 °FClear.10 mph58%30.09 "Hg10 mi
2:30 AM48 °FClear.10 mph62%30.09 "Hg10 mi
2:00 AM50 °FClear.10 mph62%30.12 "Hg10 mi
1:30 AM48 °FClear.8 mph66%30.12 "Hg10 mi
1:00 AM50 °FClear.6 mph58%30.12 "Hg10 mi
12:30 AM48 °FClear.6 mph66%30.12 "Hg10 mi
12:00 AM50 °FClear.6 mph62%30.12 "Hg10 mi
11:30 PM
Fri, Aug 28
50 °FClear.6 mph58%30.12 "Hg10 mi
11:00 PM52 °FClear.6 mph54%30.15 "Hg10 mi
10:30 PM54 °FClear.6 mph51%30.15 "Hg10 mi
10:00 PM55 °FClear.6 mph47%30.15 "Hg10 mi
9:30 PM55 °FClear.6 mph51%30.15 "Hg10 mi
9:00 PM55 °FSunny.6 mph51%30.15 "Hg10 mi
8:30 PM57 °FSunny.8 mph48%30.15 "Hg10 mi
8:00 PM63 °FSunny.6 mph37%30.15 "Hg10 mi
7:30 PM66 °FSunny.8 mph32%30.12 "Hg10 mi
7:00 PM70 °FSunny.8 mph27%30.12 "Hg10 mi
Weather by CustomWeather, © 2015

See weather overviewHow to use our weather pages